Theta_e
347 346 346 347 347 346 348 349 349 350 350 350 350 350 349 349 349 348 347 348 347 345 344 346 346 346 348 346 345 345 345 346 346 346 346 347 347 347 347 346 345 345 345 345 343 342 341 341 341 340 340 338 336 329 329 329 331 334 333 335 336 332
346 346 347 347 346 346 346 348 346 346 346 347 348 349 347 346 349 345 347 346 344 345 341 342 345 347 344 346 345 345 345 346 345 345 345 345 346 346 346 345 345 344 343 343 343 340 341 342 342 340 338 335 329 329 329 330 330 331 331 332 333 336
345 345 346 345 345 344 344 344 343 344 346 347 346 346 344 345 343 343 343 343 343 341 341 343 344 345 345 346 346 345 345 345 345 345 345 344 345 345 345 345 344 342 339 339 336 336 336 337 338 339 336 330 329 329 329 329 329 329 330 333 331 336
344 344 344 344 343 341 342 344 345 343 342 342 342 343 341 341 341 342 342 341 340 341 341 341 347 347 346 344 344 345 345 345 345 344 345 342 345 345 345 343 342 339 336 334 333 334 333 332 330 329 328 329 329 328 329 329 329 329 331 335 331 336
345 345 345 345 344 343 344 345 345 344 343 342 341 340 340 339 340 341 341 340 339 340 340 341 342 341 339 339 338 338 338 335 334 333 337 330 330 331 331 330 331 330 330 331 331 331 330 329 329 329 328 329 329 328 330 330 330 330 330 332 335 335
345 344 344 344 344 345 345 344 344 344 344 344 342 340 339 340 340 340 340 339 339 338 339 339 338 338 337 336 337 335 333 332 332 332 333 329 326 326 326 327 328 329 329 330 330 330 331 330 328 329 329 329 329 329 328 329 330 330 331 333 336 335
343 343 343 344 344 344 343 344 344 344 343 342 342 341 340 339 339 338 338 339 337 337 338 338 338 337 337 336 335 334 333 332 332 331 332 329 327 325 326 325 325 326 327 330 330 329 329 329 329 329 329 329 329 329 329 329 330 330 331 333 335 335
342 342 342 344 343 343 343 343 343 343 341 343 341 340 339 337 339 338 339 339 339 337 337 337 338 339 338 337 336 333 331 330 330 330 331 331 326 325 324 324 324 324 326 328 330 329 329 329 329 329 329 329 329 328 329 329 330 330 330 332 335 335
341 342 342 343 342 342 342 342 343 341 341 343 340 340 338 337 338 339 339 338 338 335 335 336 337 338 337 337 335 333 331 330 329 329 331 330 327 325 324 324 325 325 324 326 329 329 329 329 329 330 329 329 329 329 329 329 329 330 330 331 333 336
341 341 342 342 341 340 341 341 341 340 341 342 338 339 338 338 338 338 337 337 337 335 335 335 336 337 337 336 335 334 332 329 328 328 330 330 328 325 324 324 325 325 325 326 328 329 329 329 330 330 330 329 329 329 329 329 330 330 330 331 334 336
341 342 341 340 339 339 340 340 340 339 339 337 337 338 338 337 337 336 336 336 336 336 334 333 336 337 337 335 334 334 332 329 328 327 328 327 328 325 324 325 325 324 325 327 328 329 329 329 329 330 331 329 329 329 329 330 331 331 331 331 332 334
340 340 340 339 340 339 339 339 337 337 336 336 338 337 337 337 338 336 335 335 335 335 335 333 334 334 335 334 333 332 330 328 328 326 328 326 328 327 327 326 326 327 327 328 327 328 329 329 329 330 330 329 330 330 330 331 331 331 330 330 330 331
339 338 338 338 338 339 338 337 335 335 335 336 336 336 336 337 336 335 335 334 334 334 335 333 333 334 334 332 331 330 329 330 328 328 328 329 329 328 328 328 327 328 328 328 328 328 329 330 330 330 330 329 330 330 331 331 331 331 330 329 329 330
338 338 338 338 337 337 336 335 335 335 335 334 335 336 337 336 336 335 334 333 334 335 335 333 333 332 332 331 330 330 330 329 328 329 329 330 328 328 327 327 327 329 330 327 327 328 329 329 330 331 330 330 330 330 331 331 330 330 329 329 328 329
338 338 338 337 336 335 335 334 333 334 334 333 334 336 336 335 335 334 334 333 334 335 335 333 333 333 331 331 330 329 329 330 329 330 329 329 329 327 327 327 328 326 325 326 327 328 329 329 330 329 330 331 330 331 331 330 330 329 329 328 329 329
338 337 337 335 334 334 334 333 334 335 333 333 334 335 336 336 335 335 335 333 334 335 335 333 333 332 331 330 330 329 329 330 330 329 329 329 329 327 327 327 327 327 326 325 327 327 330 330 331 330 331 331 332 332 331 331 330 329 328 329 329 328
335 335 334 333 333 333 334 333 334 334 333 333 333 334 336 337 335 335 334 333 334 335 334 333 333 332 331 330 330 329 330 330 331 330 329 329 328 328 328 327 327 328 328 325 326 327 328 330 331 331 331 331 331 332 331 331 329 328 328 327 327 328
334 334 334 333 333 333 333 333 334 333 333 332 332 333 335 337 335 334 333 333 332 334 334 333 332 331 331 331 330 330 330 330 330 329 328 328 327 327 327 327 326 326 327 327 326 327 328 330 331 331 331 331 331 332 331 330 330 329 328 327 328 329
331 333 333 333 332 331 331 332 333 332 331 331 331 332 334 337 335 334 332 332 332 333 332 332 332 332 330 331 329 330 330 330 330 328 328 327 327 327 326 326 326 325 327 328 328 329 329 331 330 330 330 331 331 330 331 331 330 328 328 328 329 330
330 332 332 332 332 331 331 331 331 331 330 330 330 332 333 335 334 332 332 332 332 332 333 333 332 331 331 331 329 329 329 329 329 328 327 326 326 327 326 326 326 326 326 328 330 330 331 330 330 329 329 329 330 329 329 330 330 329 329 330 330 329
331 331 331 331 330 330 329 330 331 330 328 329 330 331 331 334 334 333 332 333 333 332 333 333 333 331 330 332 329 329 329 328 329 328 327 327 327 327 327 327 327 327 326 326 328 330 330 330 327 325 327 327 327 330 329 328 328 328 328 328 329 328
330 331 331 331 330 328 329 330 330 330 330 330 330 330 329 333 333 331 332 332 333 333 332 331 333 330 331 330 329 329 329 328 328 328 328 327 327 329 327 327 326 325 328 327 326 329 329 329 324 323 321 321 323 326 327 328 328 328 327 327 328 327
330 330 330 330 329 329 330 331 331 330 331 330 332 333 333 333 333 329 329 331 332 332 332 331 332 332 330 329 329 329 328 328 328 329 327 326 327 326 326 326 326 326 325 327 328 330 329 328 323 325 324 321 318 317 321 324 327 327 328 328 329 328
330 329 329 329 331 332 332 331 331 331 331 331 331 335 334 333 332 330 329 330 331 331 332 331 332 331 331 330 329 329 329 328 327 329 327 326 326 326 326 325 325 326 327 324 326 326 328 326 327 323 317 318 318 318 313 317 320 324 329 328 328 328
330 330 329 330 330 331 332 331 331 332 332 330 333 333 331 328 329 329 330 330 329 331 331 331 331 331 332 330 329 328 328 328 328 328 327 327 327 326 326 326 326 326 326 326 324 326 327 326 326 327 321 317 315 314 315 318 320 321 326 326 327 328
329 329 329 330 330 331 330 329 328 328 327 328 328 329 328 326 325 325 327 331 331 331 331 331 331 331 331 331 329 328 328 328 328 328 328 327 327 327 326 325 326 326 326 328 327 326 324 327 326 325 320 319 321 316 315 319 318 312 324 326 326 327
328 328 329 329 331 330 329 329 329 329 329 328 328 329 332 331 329 328 330 330 330 331 331 331 331 331 330 331 329 328 328 328 329 328 329 327 327 327 327 327 327 326 326 327 328 325 324 324 325 324 323 320 322 319 323 319 314 316 313 320 325 324
328 328 329 330 330 330 328 327 326 326 327 327 328 329 331 331 331 330 329 330 330 330 330 331 330 331 330 330 329 328 328 328 328 328 329 328 327 327 327 328 328 327 326 327 327 326 324 324 322 322 322 322 321 322 322 318 321 318 316 314 317 323
327 328 328 329 329 329 329 328 327 328 329 329 329 329 331 331 329 329 328 329 330 330 330 330 330 330 330 329 331 328 328 328 328 328 330 329 328 328 327 327 326 325 325 325 326 327 325 323 323 321 319 318 320 320 319 320 320 319 317 315 315 317
326 327 327 326 327 327 329 330 330 329 329 328 329 329 330 329 329 327 326 326 328 328 328 329 329 329 329 329 329 329 328 328 328 329 331 329 329 328 327 327 327 326 326 325 325 326 325 325 324 322 322 319 318 317 318 319 319 318 320 320 315 316
326 328 328 326 325 325 326 327 328 329 329 328 328 329 328 328 328 327 326 326 326 327 328 328 328 328 328 328 328 329 329 329 330 331 331 329 328 328 327 327 327 327 326 325 325 325 325 324 324 322 321 321 321 320 319 317 318 318 317 317 317 317
326 327 327 326 325 325 324 324 326 325 326 328 328 328 328 326 325 326 326 326 325 326 325 326 326 326 326 327 328 328 329 329 330 330 329 329 328 329 329 328 327 327 326 326 326 325 324 324 323 323 322 322 322 322 320 320 320 320 319 318 319 317
325 326 326 326 325 323 325 325 326 326 326 327 327 328 328 326 326 326 326 325 324 324 325 324 324 325 325 326 327 327 328 328 328 329 329 328 328 329 328 328 327 326 326 325 325 325 324 324 324 323 322 321 322 321 321 320 321 320 319 320 320 317
324 326 326 325 324 324 324 324 325 326 326 327 326 326 326 326 326 326 326 325 324 324 324 324 324 325 326 326 327 328 329 329 329 329 329 328 328 328 328 328 327 326 326 326 326 325 325 324 324 324 324 321 321 322 320 321 322 321 320 320 318 318
323 325 324 323 323 324 325 325 326 326 326 325 325 325 325 325 325 325 325 325 324 324 324 325 325 326 326 326 327 327 328 328 328 328 328 327 328 328 328 328 327 327 327 326 326 325 325 324 323 323 322 323 322 321 321 321 322 322 322 321 320 319
322 324 324 324 323 323 324 324 324 324 325 325 326 325 325 324 325 325 325 325 324 324 324 325 324 325 325 327 326 326 327 328 328 327 327 327 327 327 327 327 326 325 325 326 325 324 324 324 324 323 323 322 322 321 321 321 322 322 322 322 322 322
321 322 323 323 322 322 323 324 324 326 325 324 325 324 324 324 324 325 324 324 324 324 324 323 323 324 324 325 326 326 326 326 326 326 326 327 327 327 327 327 326 325 324 325 325 324 323 324 324 324 323 322 323 322 321 322 322 322 322 322 322 322
Wind_Speed
6 6 5 5 5 5 8 12 11 13 14 13 12 13 12 14 13 13 12 11 9 6 5 5 7 6 11 7 6 4 4 6 8 9 9 9 10 12 13 13 12 12 11 12 14 15 15 14 14 13 13 13 12 6 5 5 4 4 4 4 4 3
6 7 6 6 4 4 5 8 6 5 6 9 11 10 9 7 8 6 12 9 5 5 5 4 5 8 4 7 6 5 4 5 7 7 7 7 10 12 12 12 12 12 12 11 11 8 9 12 13 12 12 12 7 5 5 4 4 4 4 3 3 6
7 7 7 6 4 4 4 5 4 5 5 8 7 6 4 6 4 5 5 5 5 5 5 5 5 6 5 8 6 5 4 4 6 6 6 6 9 12 12 11 12 13 12 12 7 6 6 6 6 12 10 7 5 5 5 5 4 4 4 3 3 7
6 7 6 5 4 5 4 5 4 4 4 4 4 4 4 4 4 5 5 5 5 5 5 4 9 12 9 5 6 6 4 4 5 5 5 4 7 12 13 11 10 10 8 6 6 6 6 5 5 5 5 5 5 5 5 4 4 3 3 3 3 9
7 6 6 5 5 4 4 4 4 4 4 4 4 4 4 4 4 5 5 4 5 4 5 5 4 4 4 4 5 4 3 3 3 4 4 4 4 5 5 5 5 6 5 7 7 6 6 6 5 5 5 5 5 5 4 4 3 3 2 2 3 9
6 6 6 5 4 5 5 4 5 4 4 4 4 4 4 4 4 4 4 4 5 5 4 4 5 4 4 4 5 5 3 2 2 2 2 2 4 4 4 5 5 6 5 5 6 6 5 6 6 5 5 5 5 5 4 4 3 3 3 3 5 10
6 5 6 5 4 4 4 4 4 5 4 4 4 4 4 4 4 4 3 4 5 4 5 4 4 5 4 4 4 4 4 2 2 2 1 1 3 4 5 5 5 5 5 6 6 6 6 5 6 6 5 5 4 4 4 4 4 3 3 4 5 9
7 6 6 5 5 4 4 5 4 5 3 6 5 4 4 2 4 4 4 4 4 4 5 5 5 4 4 3 3 4 3 3 2 1 1 1 2 4 4 4 5 5 5 5 6 6 5 6 5 6 6 5 5 4 4 4 4 3 3 3 4 7
8 7 6 6 6 4 5 5 5 4 5 5 6 5 5 3 4 4 5 5 5 5 5 4 5 5 4 4 3 3 3 3 2 1 1 0 2 3 4 4 5 6 5 5 5 6 5 5 5 5 6 5 5 4 4 4 4 4 3 3 4 6
9 8 7 6 3 2 4 6 6 5 5 5 5 5 5 4 4 4 4 5 5 5 5 5 5 5 5 5 4 3 3 3 3 2 1 2 2 3 4 4 4 6 6 5 5 5 5 5 5 5 5 5 4 4 4 4 4 4 3 4 4 4
10 11 10 10 7 6 5 4 4 4 4 4 4 5 4 4 4 4 4 4 3 4 5 4 5 5 4 5 4 4 3 2 3 3 2 2 3 3 2 3 4 5 6 6 5 4 5 6 5 5 4 5 5 4 4 4 4 4 4 4 4 4
10 9 9 9 8 7 6 5 6 6 5 6 5 5 4 4 5 5 5 5 4 4 4 4 5 5 5 4 4 4 4 3 4 3 3 3 4 3 3 4 5 5 6 6 6 5 4 6 6 5 5 5 4 5 4 4 4 4 4 4 4 3
7 7 9 10 8 6 7 7 7 8 8 8 5 4 4 5 5 5 5 4 4 4 4 5 4 5 5 4 4 4 4 4 4 4 3 5 5 4 5 5 5 5 6 6 7 7 6 6 7 6 5 5 4 5 4 4 4 4 4 4 4 3
9 9 9 7 6 6 7 6 5 4 4 5 5 5 5 4 5 4 5 5 5 5 5 4 5 4 4 5 4 5 4 4 4 4 4 5 5 5 5 5 5 6 5 6 7 6 6 6 5 5 5 5 5 5 5 5 4 4 4 4 3 4
12 11 11 9 8 7 6 6 3 3 4 4 5 5 5 5 5 5 4 5 5 6 5 6 5 5 5 5 5 4 4 4 4 4 4 4 6 5 5 6 5 6 5 6 6 5 6 6 6 6 6 5 5 5 5 5 4 4 4 3 3 3
11 12 10 9 9 10 10 8 7 7 6 6 6 6 6 6 5 4 4 4 5 5 5 5 6 6 5 5 5 5 4 4 4 4 4 5 6 6 5 6 4 6 7 6 7 6 6 8 6 7 6 5 5 5 5 4 5 4 3 4 3 3
2 3 7 8 9 9 8 9 9 9 10 9 7 6 6 5 4 4 4 5 6 6 5 5 6 6 6 5 4 4 4 4 4 4 5 4 5 5 6 6 4 4 5 6 6 7 7 7 7 6 6 6 6 5 5 5 4 4 4 4 3 2
6 7 8 10 10 8 6 5 7 8 9 7 6 5 5 4 4 5 5 4 2 3 4 4 5 5 5 5 5 5 4 4 4 4 4 4 4 4 5 6 6 4 5 7 6 7 8 8 7 6 6 6 6 5 5 5 4 4 4 4 3 3
3 5 6 4 3 4 3 3 2 3 6 8 7 5 4 4 4 2 3 4 3 3 1 4 5 5 6 5 4 4 5 5 4 4 5 4 5 5 5 5 6 6 5 5 7 7 7 7 7 7 8 7 6 6 5 5 4 5 4 4 3 3
4 4 5 5 5 6 6 7 8 6 6 7 7 7 6 3 5 4 5 6 5 5 5 6 5 5 5 4 3 5 5 5 5 5 6 5 5 5 7 7 7 8 9 7 6 7 7 7 6 7 7 6 5 5 5 4 5 5 4 4 3 3
6 6 6 7 8 9 8 7 8 9 9 7 7 5 6 4 6 7 8 6 6 5 5 3 4 5 5 6 5 3 4 5 5 5 6 6 6 6 6 7 7 6 10 10 7 7 6 8 9 5 5 5 5 5 5 5 5 5 4 3 3 2
6 6 7 8 4 1 2 3 5 7 6 7 7 6 6 6 6 7 6 7 6 6 5 4 3 3 2 4 2 2 3 5 6 5 4 5 5 6 7 7 7 6 5 9 7 9 8 9 5 5 6 5 3 5 6 5 5 4 4 4 3 2
5 7 6 4 1 3 0 2 3 3 4 4 3 5 6 8 9 7 5 5 5 5 5 5 5 5 5 6 4 3 4 4 6 6 6 6 6 7 7 8 8 8 7 3 5 6 9 2 6 5 5 4 4 2 2 3 4 5 4 4 3 3
4 5 5 3 0 1 1 1 4 3 2 3 2 5 7 8 5 5 5 5 3 2 5 6 6 6 6 6 6 6 4 5 5 6 7 7 7 7 7 7 7 8 9 10 6 7 5 3 6 9 6 2 2 1 3 2 2 2 3 4 3 3
5 5 4 2 3 4 3 5 4 3 3 1 4 6 8 7 6 4 4 7 8 8 8 5 5 5 6 7 7 6 7 7 6 6 6 7 8 8 8 8 9 9 9 10 9 5 3 4 6 1 5 5 2 3 2 3 4 2 3 3 3 2
1 1 0 2 4 5 5 5 7 7 6 6 5 7 9 8 8 9 9 5 7 8 9 7 6 5 6 6 8 8 8 7 6 6 6 7 7 6 7 8 8 8 8 8 9 8 6 4 5 2 1 1 4 5 6 6 5 3 3 2 5 4
1 1 2 4 5 6 5 6 8 8 7 6 7 5 6 7 8 6 5 6 7 7 5 7 7 6 7 7 7 8 8 7 7 6 5 5 6 8 8 7 6 6 7 7 7 9 9 8 4 3 1 0 1 1 7 9 4 5 4 1 2 4
1 2 3 4 6 6 7 6 5 4 2 5 5 5 7 7 6 7 7 7 6 7 6 5 6 7 7 7 7 7 7 6 6 6 6 6 6 6 6 6 7 7 6 7 9 10 9 8 9 6 3 2 1 3 5 4 6 5 5 6 4 3
1 2 2 3 6 6 5 6 5 5 4 3 3 5 5 5 6 6 7 5 6 6 8 8 8 7 7 7 7 7 6 6 6 6 6 5 5 7 8 9 8 7 7 7 7 7 8 9 7 6 5 2 4 4 3 3 6 4 4 5 3 5
1 2 2 1 4 5 5 4 5 5 5 4 5 5 5 5 5 6 6 6 5 7 7 7 7 7 6 6 6 6 6 7 7 6 6 6 6 6 7 7 9 9 8 8 6 6 8 8 7 5 5 5 4 4 4 3 3 4 3 1 5 7
2 4 1 1 1 3 4 3 3 3 2 3 5 6 5 4 3 3 3 5 6 7 7 7 6 7 7 6 6 6 6 7 6 6 6 6 7 7 7 8 7 7 8 8 7 6 5 5 6 5 6 6 7 8 7 5 7 5 4 4 5 5
3 3 1 1 0 0 2 2 2 3 2 1 3 3 4 5 5 3 3 5 4 4 5 5 6 6 6 7 6 6 6 6 6 6 6 6 6 7 7 7 6 7 7 7 6 6 6 7 8 6 5 5 6 6 5 5 6 7 7 6 6 8
5 4 3 2 2 1 1 2 4 3 3 4 4 5 5 6 6 6 7 6 5 6 5 6 6 7 7 8 7 6 6 6 6 6 6 6 6 7 7 7 7 7 7 8 7 7 7 8 9 8 7 6 5 5 6 3 5 6 4 5 6 8
6 6 5 3 2 2 3 2 3 4 5 6 6 6 6 7 7 7 7 7 6 6 6 7 7 8 7 7 6 6 6 6 6 6 6 7 7 7 7 7 7 8 8 7 7 8 8 8 8 8 6 6 5 6 4 5 6 6 7 7 6 8
6 5 5 6 3 4 5 4 4 4 5 6 7 6 6 6 7 8 7 7 7 7 6 7 7 6 6 7 7 6 6 7 6 6 6 6 5 6 6 6 6 8 7 7 8 8 7 8 7 8 7 7 6 5 5 5 7 7 6 7 8 8
7 6 5 6 6 7 6 5 5 4 4 5 6 7 6 6 7 6 6 7 6 6 6 5 5 4 5 6 7 7 6 6 6 6 6 6 6 6 6 6 6 6 7 5 7 8 7 8 8 9 9 6 6 6 5 6 6 6 6 6 7 8
9 8 6 5 7 6 5 5 6 6 7 8 9 9 9 8 7 6 6 5 5 5 4 4 5 4 6 6 6 7 7 6 6 6 6 6 7 6 6 6 6 7 6 6 7 8 6 7 7 7 6 8 7 6 6 5 5 5 5 5 5 7
Wind_Direction
120 113 110 107 108 122 145 142 140 144 147 148 146 148 148 146 144 144 143 141 126 113 109 126 121 118 120 114 119 119 102 95 95 100 109 113 109 104 101 98 97 95 94 101 114 113 113 116 117 118 118 116 106 94 99 98 97 97 96 104 116 156
124 117 114 122 109 109 137 130 129 145 143 149 152 151 149 147 143 142 144 131 122 119 114 115 116 124 119 121 125 130 115 98 94 94 94 99 98 99 98 98 97 95 96 98 103 107 111 115 117 116 115 106 92 97 92 91 96 98 98 98 125 123
129 123 110 115 114 112 116 112 124 136 142 150 151 135 131 138 124 128 120 121 118 116 122 121 115 126 126 127 129 136 132 106 95 95 99 94 93 94 97 96 92 92 96 100 99 102 102 104 116 120 108 98 100 98 98 95 92 94 99 91 91 105
130 135 123 120 116 115 122 120 121 117 117 128 121 123 120 113 102 110 119 118 122 125 125 130 146 141 134 127 134 139 142 106 92 89 73 55 75 91 96 91 85 83 87 96 107 106 103 97 97 89 98 104 101 104 101 103 97 88 81 96 134 118
130 129 131 132 136 129 123 117 119 122 116 114 119 107 105 94 105 108 110 110 117 118 120 123 105 108 102 120 106 92 59 39 47 51 39 54 59 69 74 83 71 67 87 106 111 114 112 110 104 104 102 105 105 106 102 95 92 82 65 90 118 108
130 137 137 127 116 130 124 113 126 139 128 121 118 116 107 113 110 115 125 134 124 123 129 122 113 124 121 111 116 109 92 60 66 75 44 34 55 66 77 78 83 87 98 105 112 112 118 124 123 112 109 109 115 109 108 97 90 86 61 62 107 111
126 122 115 95 101 106 115 111 114 133 131 119 112 122 125 134 119 125 134 132 126 138 140 128 125 134 123 115 126 125 122 107 134 129 128 40 61 58 78 84 93 100 108 110 105 109 115 116 125 124 115 111 111 109 103 94 81 76 62 86 105 114
117 114 116 121 125 132 126 123 131 150 129 146 129 131 138 147 123 124 129 129 141 152 146 139 146 139 133 113 129 117 125 134 143 157 147 112 80 65 73 90 109 116 112 115 117 117 118 123 125 123 118 113 112 108 96 91 86 78 68 62 104 119
120 125 130 142 141 147 138 135 133 138 143 152 144 156 149 172 143 147 145 152 159 152 148 154 154 146 135 140 134 130 159 174 167 205 188 30 82 92 80 99 112 108 115 119 123 123 121 116 119 117 124 123 119 110 101 91 86 76 59 69 94 118
140 140 135 125 105 150 140 147 140 142 146 146 148 161 153 163 147 141 154 174 173 154 159 162 154 148 153 151 149 145 164 191 199 223 170 197 71 103 125 105 98 98 109 123 125 131 122 120 112 111 120 122 118 112 110 106 91 82 72 77 85 109
150 151 148 149 155 163 153 112 94 103 109 128 148 165 176 168 160 160 174 182 157 162 150 152 156 153 156 154 154 155 186 176 218 234 182 136 81 118 140 123 103 109 117 123 116 115 122 122 117 111 119 120 116 112 104 95 87 85 74 67 79 93
160 162 158 158 158 144 141 141 138 142 145 149 160 177 179 188 184 168 174 177 159 161 150 151 157 154 158 157 160 171 172 177 225 222 189 120 109 109 91 75 87 96 109 111 108 98 102 124 123 118 114 115 115 108 99 88 87 83 78 73 80 68
160 167 170 166 160 144 138 152 170 174 161 156 158 165 181 196 194 177 172 165 168 169 165 158 166 161 159 161 164 171 175 199 216 212 173 127 118 110 98 91 77 92 95 96 100 101 104 108 117 120 120 123 115 112 108 104 99 88 83 89 78 70
172 178 174 156 139 132 146 164 185 164 144 139 142 161 186 200 202 188 181 177 171 177 167 165 159 158 157 161 172 180 180 199 208 200 153 135 123 129 113 107 111 101 97 102 108 112 116 115 118 122 121 120 112 116 111 104 98 93 94 87 87 69
179 176 170 153 136 137 151 176 137 98 110 131 156 171 183 195 203 195 178 189 182 181 174 167 163 160 171 171 177 180 184 196 176 176 146 139 131 114 120 123 129 105 98 100 108 112 122 124 133 135 133 129 123 116 112 118 112 92 95 92 80 78
189 172 152 137 143 156 163 164 152 148 144 160 176 183 182 195 192 183 189 191 193 187 175 166 161 161 167 183 182 182 187 156 164 150 129 129 124 124 120 112 94 121 118 110 114 113 121 128 130 131 132 135 134 129 119 120 119 111 105 93 84 81
153 82 106 137 160 162 163 161 160 158 166 177 178 176 181 179 171 182 193 203 197 190 174 163 160 164 163 179 185 183 169 156 156 156 134 137 125 132 131 117 93 75 111 129 122 123 129 126 127 128 132 137 143 141 136 132 129 124 106 91 88 91
160 162 169 176 172 160 156 155 169 164 162 162 179 176 168 160 169 194 203 225 190 206 161 162 162 164 163 173 180 177 153 150 150 139 128 133 126 118 113 123 110 76 112 126 130 133 135 132 127 131 137 143 147 135 127 129 127 124 121 116 109 113
111 148 172 156 90 65 104 131 140 154 156 169 181 175 159 160 155 75 12 17 8 330 321 168 171 166 163 160 165 174 153 147 149 138 130 128 125 115 110 105 114 104 88 111 131 135 134 127 116 119 131 134 128 122 122 124 116 123 127 129 136 141
92 106 115 122 151 158 168 173 164 163 178 196 188 177 158 136 128 149 187 194 192 189 201 195 177 171 164 138 132 180 156 148 153 146 146 144 144 148 138 126 124 121 118 123 123 128 126 120 101 99 101 108 108 117 125 125 123 120 123 133 136 138
126 132 144 161 187 193 191 181 177 181 187 186 187 155 139 142 153 182 188 184 195 210 219 187 167 159 138 129 191 173 147 150 160 161 162 167 161 143 136 134 125 122 132 132 128 127 117 123 120 100 110 104 111 115 111 113 113 110 111 104 130 139
138 150 171 184 179 301 324 262 233 206 182 179 169 161 154 160 165 196 183 183 189 205 199 182 160 97 96 118 147 142 186 170 170 168 155 142 133 131 134 134 131 115 134 141 140 145 145 140 130 139 136 119 90 73 98 111 119 102 115 132 134 130
155 165 184 176 158 218 150 328 285 304 230 165 134 133 143 171 182 162 166 185 181 196 194 184 174 160 140 125 185 191 216 204 173 157 143 148 146 145 152 151 151 140 139 134 132 151 166 189 133 125 101 107 117 133 119 84 84 102 128 128 137 141
175 176 174 138 203 237 142 110 354 18 360 359 110 126 143 169 156 134 169 165 168 200 214 191 177 158 158 149 170 203 186 207 189 173 162 160 164 159 154 153 146 147 147 143 150 167 178 179 147 137 147 216 140 72 128 180 119 88 130 128 120 150
200 196 169 141 137 135 110 109 114 78 131 134 119 147 148 171 159 148 158 187 173 181 209 208 186 172 166 162 175 186 194 199 185 176 170 166 170 174 170 165 160 155 168 156 160 154 169 181 178 173 139 125 111 217 214 140 122 146 143 137 131 144
312 351 73 130 131 132 143 150 162 170 183 183 185 171 170 156 156 178 199 181 159 177 191 186 193 197 195 172 172 180 189 189 182 178 181 178 168 155 162 164 174 167 164 174 158 157 154 195 198 116 7 165 172 178 170 152 151 169 75 88 156 189
337 214 189 164 147 139 145 167 193 192 189 190 198 188 160 162 173 180 178 179 175 170 189 181 185 198 202 193 180 182 186 183 180 179 178 164 167 171 169 172 162 168 171 159 161 163 165 174 180 262 165 83 93 243 144 140 175 118 158 169 213 139
250 203 210 166 150 158 160 175 193 197 192 228 218 173 165 173 163 164 177 170 164 167 168 207 199 203 202 191 185 185 181 174 176 176 175 183 176 165 158 164 174 171 154 171 171 170 170 172 180 196 178 235 66 112 124 71 142 157 144 159 165 97
272 263 247 171 147 155 158 171 189 209 208 183 156 144 157 155 160 161 165 164 167 166 169 178 198 207 198 191 187 183 174 172 177 180 183 179 173 166 171 169 168 163 171 175 182 173 166 179 192 190 152 80 102 122 78 67 121 95 136 151 164 175
300 265 256 225 157 158 163 164 176 197 201 165 133 137 148 157 167 163 171 177 173 172 174 174 180 195 200 196 186 179 177 179 185 180 184 179 168 170 179 179 178 178 171 174 179 172 180 180 191 171 176 146 133 115 78 70 81 108 90 101 163 177
310 296 274 276 239 166 151 150 145 161 190 154 139 140 144 162 117 129 184 196 186 181 178 183 178 187 195 192 191 185 183 185 182 182 180 173 177 180 183 185 182 175 171 176 180 179 170 167 173 167 171 170 161 167 167 167 178 171 151 147 138 155
320 292 281 269 308 325 106 114 111 126 136 128 130 139 147 122 130 179 251 257 225 177 186 185 183 183 191 194 190 191 186 180 181 179 184 179 180 183 184 183 176 178 182 182 175 173 167 165 178 179 183 183 178 178 170 165 169 169 166 164 154 159
312 304 290 230 207 233 142 140 134 140 167 163 160 171 162 156 176 185 196 220 229 215 190 185 193 190 198 192 188 186 183 180 182 184 180 175 186 181 177 179 181 182 179 180 181 177 174 182 177 180 192 194 177 180 189 164 140 146 119 133 139 142
317 315 309 289 255 233 235 205 164 172 179 180 186 182 180 175 184 190 200 202 203 226 202 202 192 199 192 186 188 187 179 182 182 178 178 181 176 178 171 175 180 182 185 189 178 182 188 183 184 191 171 162 184 183 174 161 147 145 149 141 149 151
312 294 291 292 287 235 224 217 191 189 196 196 192 194 200 188 187 194 199 207 197 208 213 209 201 197 172 180 182 178 184 184 181 177 170 170 171 176 178 170 178 185 187 177 183 182 186 175 180 181 179 184 177 172 169 163 161 169 163 168 157 157
305 300 297 312 335 343 355 351 334 302 265 228 206 200 202 194 200 195 198 208 206 198 216 209 201 169 180 173 175 180 184 187 177 172 171 168 168 179 180 173 173 175 183 168 174 181 181 178 184 185 188 172 156 179 169 169 173 166 174 162 158 160
324 310 314 349 26 317 278 247 224 226 235 229 229 204 200 195 196 194 197 209 206 199 204 201 188 176 173 182 178 178 179 176 175 178 174 168 166 180 178 176 173 174 181 177 173 183 169 178 187 180 174 176 183 163 173 166 158 162 157 155 164 168